Theta_e
319 318 316 316 317 319 318 316 315 314 312 312 314 314 315 316 317 318 319 318 318 315 313 312 310 306 306 307 305 304 302 300 298 297 296 296 295 295 295 294 294 294 294 294 293 291 290 289 289 288 287 287 287 286 286 286 286 286 286 286 286 286 286 286 286 287 287 287 287 287 286 286 285 285 285 284 284 283 283 282 282 282 281 281 280 279 279
318 319 317 315 316 319 319 317 316 315 312 312 313 313 314 315 316 317 316 316 316 315 313 313 310 308 309 309 306 304 302 300 297 297 297 297 296 296 295 295 295 294 294 294 293 292 291 290 289 288 288 287 287 287 287 286 286 286 286 286 286 286 286 286 286 286 286 287 287 286 285 285 285 285 285 284 284 283 282 282 281 281 281 280 279 279 278
318 318 317 317 317 319 319 318 317 314 312 312 312 313 313 314 315 314 314 314 314 314 314 313 310 308 308 306 304 302 301 300 298 297 298 297 297 296 296 295 295 294 294 295 294 292 291 290 289 289 288 287 287 287 287 287 287 286 286 286 286 286 286 286 286 286 286 286 286 285 285 285 285 285 284 284 284 283 282 282 281 281 280 280 279 278 278
320 316 316 317 316 316 317 318 317 313 311 311 311 311 312 313 313 313 314 314 314 314 313 311 308 306 306 305 304 302 301 299 298 298 298 298 297 297 296 295 295 294 294 294 294 293 292 291 290 289 288 287 287 287 287 287 286 286 286 285 285 286 286 286 286 286 286 285 285 285 285 284 284 284 284 284 284 283 282 281 281 280 280 279 278 278 277
319 312 312 314 314 316 319 317 317 315 312 312 312 312 312 312 313 314 315 315 314 312 311 308 305 305 306 305 304 303 301 299 298 299 299 298 297 296 296 296 295 294 294 294 294 293 292 292 291 290 289 288 287 287 287 286 286 286 285 285 285 285 285 285 285 285 285 285 284 285 284 284 284 284 284 284 284 283 282 281 280 279 279 278 278 277 277
315 307 308 313 316 321 318 310 310 314 315 315 315 314 314 313 313 314 313 313 313 311 310 309 307 306 305 304 303 302 301 300 299 298 298 298 297 296 295 295 295 295 295 294 293 293 292 292 291 291 290 289 288 287 286 286 286 286 285 285 285 285 285 285 285 285 285 284 284 284 284 284 283 284 284 284 284 283 282 280 279 279 278 278 277 277 277
310 305 309 316 320 319 309 300 300 305 310 314 315 314 314 313 312 311 310 310 310 310 309 308 307 305 302 300 299 299 299 300 300 299 299 299 298 296 295 295 295 294 294 293 292 292 292 292 291 291 290 289 288 288 287 286 286 285 285 285 285 285 285 285 285 285 284 284 284 284 283 283 283 283 284 284 283 282 281 279 279 278 278 277 277 277 276
307 307 313 318 318 313 304 298 296 300 305 310 311 313 312 310 309 309 310 310 307 306 304 302 300 300 297 296 296 296 296 297 298 299 301 300 298 298 297 295 294 294 293 293 292 292 292 291 291 291 290 290 289 288 288 287 287 286 286 286 285 285 285 285 285 285 284 284 284 283 283 283 283 283 284 283 283 281 280 279 278 278 278 277 277 276 276
308 310 312 314 315 313 308 303 300 302 306 308 309 313 312 309 308 308 309 309 306 302 299 296 294 294 296 297 297 296 295 295 296 297 298 297 297 297 296 294 294 294 294 294 293 293 292 291 291 290 290 290 289 288 288 288 288 287 287 286 286 286 286 286 286 285 285 284 284 283 283 283 283 283 283 283 282 280 279 278 278 278 277 277 277 276 276
310 310 312 312 314 315 314 309 302 300 303 305 307 311 310 306 306 307 308 309 306 301 297 294 293 295 298 300 299 298 297 296 295 295 294 293 294 294 293 292 292 293 294 294 293 293 292 291 291 291 290 290 289 289 288 288 288 287 287 287 287 287 287 287 287 286 286 285 284 283 283 283 283 283 283 282 281 280 279 278 278 278 277 277 277 276 276
310 311 314 314 314 314 312 307 299 296 298 303 305 308 308 305 303 304 306 307 305 302 297 294 295 298 300 301 299 297 296 294 293 294 293 292 291 291 291 292 292 293 293 292 292 291 291 291 291 291 291 290 289 289 288 288 287 287 288 289 289 289 288 288 287 287 286 285 284 284 283 283 283 283 282 281 280 279 279 278 277 277 277 276 276 276 275
311 311 313 313 313 312 307 301 296 293 295 300 306 309 308 303 299 300 304 306 304 301 297 294 296 300 302 301 299 296 294 291 290 291 293 292 290 290 291 292 292 293 292 291 290 291 291 292 292 291 291 290 289 289 289 288 287 288 290 290 290 289 289 288 287 286 285 285 284 284 283 283 283 282 281 280 280 279 278 277 277 277 277 276 276 275 275
311 313 314 313 313 310 304 298 295 294 296 301 308 309 304 301 298 296 300 303 301 298 297 295 297 299 298 297 295 292 291 292 291 289 289 290 289 290 292 292 291 291 291 291 292 292 293 293 292 292 291 289 289 289 288 287 288 290 291 291 289 289 288 287 287 286 285 284 284 283 283 282 281 281 280 280 279 278 277 277 277 276 276 276 275 275 275
310 311 312 313 313 308 300 296 293 294 299 305 307 302 298 300 301 296 296 298 297 297 298 296 296 297 294 292 293 291 291 293 293 289 287 287 288 289 290 290 290 291 291 291 292 292 292 292 292 291 290 289 289 288 287 288 290 291 290 289 288 288 287 287 286 286 285 284 283 283 282 281 281 280 280 279 278 277 277 276 276 276 275 275 274 274 274
309 309 310 313 313 304 296 295 295 295 301 305 303 297 294 295 298 297 295 295 294 295 297 295 294 293 291 291 292 291 290 290 290 288 287 287 288 287 288 288 289 290 291 291 291 292 292 291 291 291 290 289 289 288 288 289 291 290 289 289 288 287 287 286 286 285 284 284 283 282 282 281 280 280 279 278 278 277 276 276 275 275 275 274 274 273 273
309 310 310 310 307 299 296 298 299 299 301 300 298 298 297 294 293 294 295 295 292 293 295 295 292 291 290 291 291 291 289 289 288 288 287 287 287 287 287 289 289 289 289 290 291 291 291 291 290 290 289 289 288 287 289 290 290 289 289 288 287 286 286 286 285 284 284 283 282 282 281 280 279 279 278 277 277 276 276 275 275 274 274 274 273 272 272
306 306 305 301 297 296 296 298 298 300 300 296 296 299 299 295 293 292 294 295 292 290 292 292 291 290 290 290 291 291 291 290 289 288 287 286 287 287 287 288 288 288 289 290 290 289 290 290 290 289 289 289 287 288 289 290 289 289 288 287 286 285 285 285 284 284 283 282 281 281 280 280 279 278 278 277 276 275 275 274 274 274 273 273 272 271 271
299 298 297 295 295 295 296 295 294 297 298 295 295 299 299 295 293 292 293 294 293 290 290 291 291 291 291 290 290 290 290 290 289 288 287 286 286 286 286 287 287 288 288 288 287 287 288 288 288 289 289 288 288 289 289 289 289 288 287 286 285 284 284 284 284 283 282 281 281 280 279 279 278 277 277 276 275 274 274 274 273 273 272 272 271 270 270
299 298 295 294 294 294 294 294 293 294 295 293 292 295 297 294 293 292 292 292 291 289 289 290 292 292 291 290 290 289 288 289 289 287 287 286 286 286 287 288 288 287 286 286 286 286 286 287 288 288 288 288 288 289 288 287 287 287 286 285 284 284 284 283 283 282 281 281 280 279 278 278 277 276 276 275 274 274 274 274 273 272 271 271 271 270 269
296 295 292 290 291 291 292 293 293 293 294 293 290 290 292 292 291 290 289 289 290 290 289 290 291 292 290 290 291 290 288 288 288 287 286 286 287 288 289 288 287 286 285 285 286 286 286 288 288 288 288 288 289 288 286 286 285 285 284 284 284 284 284 283 282 282 281 280 279 278 278 277 276 276 276 275 274 274 274 273 272 272 271 271 271 270 269
293 291 290 289 290 291 291 292 293 293 293 293 292 289 289 290 291 290 289 288 288 289 289 289 289 291 290 289 290 291 289 288 287 286 286 286 286 288 288 288 287 286 286 285 286 286 287 288 288 287 288 288 288 287 286 285 284 283 283 283 283 282 282 282 281 281 279 278 277 277 276 276 276 275 275 275 274 274 274 273 272 271 271 271 271 271 269
295 293 292 291 293 294 294 293 293 293 291 291 291 291 291 292 292 292 292 290 287 286 287 287 288 291 291 289 289 290 289 288 287 286 286 286 286 287 287 287 286 286 286 286 285 286 287 287 286 286 287 288 287 286 285 284 283 282 282 281 281 280 280 279 279 278 277 277 276 275 275 275 275 274 274 273 273 273 273 272 272 271 271 271 271 270 269
296 295 293 292 293 295 295 293 293 293 290 290 292 293 293 293 291 291 292 292 289 288 287 285 287 291 292 289 288 289 288 287 286 286 286 286 286 287 287 286 285 284 285 285 284 285 286 286 285 285 286 286 286 285 285 284 282 281 281 280 279 278 278 278 278 277 276 276 275 274 274 274 273 273 272 272 272 272 272 271 271 271 271 270 270 269 269
293 294 294 292 292 293 293 294 295 293 290 291 293 293 292 292 290 289 290 291 291 291 290 286 284 287 289 288 288 289 288 287 286 286 286 286 287 287 287 285 284 284 284 284 284 286 287 286 284 284 285 284 284 284 283 282 281 280 279 279 278 278 277 277 276 275 274 274 274 274 274 273 272 271 271 271 271 271 271 270 270 270 269 269 269 269 269
293 293 292 291 291 292 291 292 292 290 289 290 292 292 291 291 289 288 289 290 289 290 290 289 286 284 285 286 286 287 287 287 286 286 285 285 285 285 284 284 284 285 285 286 286 286 286 285 284 284 284 283 283 283 282 281 280 279 278 278 278 277 276 275 273 272 272 272 273 273 273 272 271 271 270 270 270 270 270 269 268 268 268 268 268 268 269
293 292 289 288 289 289 288 289 290 290 289 288 290 291 291 289 288 288 288 288 288 287 288 289 287 285 284 285 285 285 285 286 286 285 284 284 283 283 283 284 285 285 285 285 285 285 284 284 283 283 282 282 282 281 280 280 278 277 277 276 276 275 274 274 273 273 272 273 273 273 272 271 271 270 270 269 269 269 269 268 268 267 268 268 268 268 268
292 291 290 290 290 289 288 289 291 292 290 288 289 291 289 286 286 286 286 285 285 285 285 286 286 285 284 283 284 284 284 284 284 283 283 283 283 283 284 285 284 284 284 283 283 284 283 283 282 282 281 281 280 279 279 278 277 276 275 274 273 273 273 273 273 273 273 273 273 272 271 270 270 269 269 268 268 267 267 267 268 268 268 268 268 268 267
291 290 291 292 292 292 291 290 290 290 289 288 288 289 286 285 286 287 288 288 286 284 283 283 283 283 283 283 283 282 282 282 282 282 282 283 283 283 283 283 283 283 282 282 282 282 282 281 281 280 280 279 278 278 277 276 275 274 273 272 272 271 271 271 272 272 272 272 271 271 270 269 269 268 268 267 266 266 266 266 266 267 268 268 269 268 267
290 289 289 290 291 291 291 290 289 290 288 286 286 286 286 287 289 290 290 289 288 286 285 284 282 282 282 282 282 282 282 282 282 282 282 282 282 282 281 281 281 281 280 280 280 280 280 279 279 278 278 277 276 276 275 274 273 273 272 271 271 270 270 271 271 271 270 270 270 269 268 268 267 267 266 266 265 264 264 265 265 265 266 267 268 268 268
289 288 288 289 289 289 289 290 290 290 289 287 287 288 288 288 289 289 288 287 287 287 286 285 283 282 281 281 281 282 282 282 283 282 282 281 281 280 280 280 279 279 278 278 278 278 277 277 276 276 276 275 275 274 273 272 272 271 270 270 270 269 270 270 270 270 269 268 268 267 266 266 266 265 265 264 264 263 263 263 263 263 264 265 266 267 268
289 289 289 289 288 288 289 289 289 289 288 288 288 288 287 287 288 289 288 287 287 287 286 284 283 282 281 281 282 282 281 282 282 281 280 279 278 278 278 277 277 277 276 276 276 276 275 275 274 274 273 273 272 272 271 271 270 269 268 268 268 268 269 269 268 268 267 267 266 266 265 265 264 264 263 263 263 262 262 262 262 262 262 262 264 266 267
292 290 289 288 287 287 288 288 288 288 288 287 288 289 288 288 289 289 289 288 287 287 286 285 284 283 282 282 282 282 281 281 280 278 277 276 275 275 275 275 274 274 274 274 274 274 273 272 271 271 271 271 270 270 269 269 269 268 267 267 268 268 268 267 267 266 266 266 265 265 264 264 263 263 263 262 262 262 261 261 261 261 261 261 263 265 267
293 292 291 289 288 289 290 289 288 288 288 287 287 287 287 287 288 288 287 287 286 285 284 284 283 283 283 282 282 281 279 278 277 275 273 273 272 272 272 272 271 271 272 272 271 271 270 269 269 269 269 269 269 268 268 267 267 267 267 267 267 267 267 266 265 265 264 264 264 264 264 263 263 262 262 261 261 261 261 260 260 260 260 261 263 265 266
292 292 292 292 292 291 292 291 289 288 288 287 286 287 286 285 285 284 284 284 284 284 283 283 282 282 282 281 281 279 277 277 277 274 271 270 270 269 269 269 269 269 269 269 268 268 267 267 267 267 267 267 267 267 267 267 266 266 267 266 266 266 265 265 264 263 263 263 263 263 262 262 262 261 261 261 260 260 260 259 259 260 259 260 262 264 265
291 292 291 291 291 291 292 292 290 289 288 288 286 286 284 283 282 282 282 282 282 282 281 281 281 281 280 279 278 275 274 275 276 274 270 268 268 267 267 267 267 267 267 266 266 266 266 266 266 266 266 266 266 266 266 266 266 265 265 265 264 264 264 264 263 263 262 262 262 262 261 261 261 261 260 260 259 259 259 259 259 259 259 259 261 263 264
285 289 290 287 285 286 287 285 282 283 287 288 286 285 283 279 277 278 279 278 278 278 278 278 279 278 276 274 273 272 271 272 272 271 269 267 266 266 266 266 266 266 265 264 264 265 265 265 265 265 265 265 265 265 265 265 265 265 264 264 264 263 263 263 262 262 262 262 261 261 261 261 260 260 260 259 259 259 259 259 259 259 259 259 260 261 262
275 279 285 283 276 273 271 267 265 269 274 276 274 275 274 271 269 271 273 273 273 274 274 275 275 273 270 269 269 269 268 269 269 269 267 265 264 264 264 265 265 265 265 263 263 263 264 264 264 264 264 264 264 264 264 264 264 264 264 264 263 263 262 262 261 261 261 261 261 261 260 260 259 259 259 259 259 259 258 258 258 258 258 259 259 259 260
268 267 270 270 265 261 260 260 260 263 267 267 264 263 264 264 266 268 269 269 269 270 271 272 271 269 267 267 266 265 264 265 266 266 264 263 263 264 264 263 264 265 264 263 263 263 263 263 263 263 263 263 263 263 263 263 263 263 263 263 262 262 261 261 261 261 260 260 260 260 260 259 259 258 258 258 258 258 258 258 258 258 258 258 258 258 259
270 266 263 261 260 259 258 259 260 261 262 264 262 260 260 263 266 267 267 266 266 268 269 269 268 267 265 263 261 260 260 262 263 263 262 263 263 263 262 262 262 263 263 262 262 262 262 263 263 262 263 263 262 262 262 262 262 262 262 262 261 261 261 261 260 260 260 260 259 259 259 259 258 258 258 257 257 257 257 257 257 257 257 257 257 257 258
268 266 262 261 262 260 258 258 258 257 258 260 260 259 261 264 265 265 265 264 264 266 267 268 266 263 260 259 259 258 259 260 261 262 262 263 263 262 261 260 260 261 262 262 262 262 261 261 261 261 261 261 261 261 261 261 261 261 261 261 261 260 260 260 260 259 259 259 259 258 258 258 258 257 257 257 257 257 257 257 257 257 257 257 258 258 259
262 261 260 260 260 259 257 257 257 257 257 259 259 259 261 263 264 263 262 261 262 264 266 267 265 262 259 259 260 259 259 260 261 262 262 262 262 262 261 260 260 260 261 261 261 261 261 261 261 261 261 261 261 261 261 261 261 260 260 260 260 260 260 259 259 259 259 259 258 258 258 257 257 257 257 257 257 257 257 257 257 257 258 258 259 259 259
259 259 259 259 258 257 257 257 256 256 256 257 257 258 260 262 263 262 260 261 262 264 263 264 264 262 260 260 260 260 259 260 260 261 261 262 262 262 262 260 259 260 260 260 260 261 261 261 261 261 261 261 261 261 260 260 260 260 260 260 259 259 259 259 259 259 259 258 258 258 258 258 257 257 257 257 257 257 257 257 257 257 258 258 259 259 260
256 257 258 258 256 256 256 256 256 256 255 256 256 258 259 260 261 261 261 261 262 262 261 261 261 261 261 261 260 259 259 259 260 260 260 261 261 261 262 261 260 260 260 260 260 260 260 260 260 260 260 260 260 260 260 260 260 260 260 260 260 260 260 259 259 259 259 259 258 258 258 258 258 257 257 257 257 257 257 257 257 258 258 259 259 259 260
255 256 257 256 256 256 256 256 256 256 256 255 256 258 259 260 260 261 261 261 260 261 261 261 260 260 261 261 261 260 259 259 260 260 260 259 259 260 260 260 260 260 259 259 260 260 260 260 260 260 260 260 260 260 260 260 260 260 260 260 260 260 260 260 259 259 259 259 259 258 258 258 258 258 258 258 258 258 258 258 258 258 259 259 259 259 259
255 255 256 256 256 257 256 256 256 256 256 256 257 258 259 259 260 260 260 260 260 260 260 261 260 260 261 261 261 260 260 260 260 260 260 260 260 259 259 259 259 259 259 259 259 259 260 260 260 260 260 260 260 260 260 260 260 260 260 260 260 260 260 260 260 259 259 259 259 258 258 258 258 258 258 258 258 258 258 258 258 258 259 259 259 259 259
255 255 255 256 256 255 255 256 256 256 257 258 258 258 258 259 260 260 260 261 260 260 260 260 260 260 260 260 260 260 259 259 260 260 260 261 260 259 259 259 259 259 259 260 260 260 260 260 260 260 260 260 260 260 260 260 260 260 260 260 260 260 260 260 260 259 259 259 259 259 259 258 258 258 258 258 259 259 259 259 259 259 259 259 259 259 259
254 254 255 255 255 255 256 257 257 257 258 259 258 257 257 259 259 260 260 260 260 260 260 260 260 260 260 260 260 260 260 259 259 259 260 260 260 259 259 259 259 260 260 260 260 260 260 260 260 260 260 260 260 260 260 260 260 260 260 260 260 260 260 259 259 259 259 259 259 259 259 259 258 258 258 259 259 259 259 259 259 259 259 259 259 259 259
254 255 255 256 256 257 257 258 257 256 256 257 257 257 257 258 259 259 259 259 259 259 259 259 259 259 259 260 260 260 260 260 260 260 260 260 260 260 260 260 260 260 260 260 260 260 260 260 260 260 260 260 260 260 260 260 260 260 260 260 260 259 259 259 259 259 259 259 259 259 260 259 259 258 258 259 259 259 259 259 259 259 259 259 259 259 259
255 256 256 257 258 258 257 257 257 256 256 256 257 257 258 258 259 259 259 259 259 259 259 259 259 259 259 260 260 260 260 260 261 260 260 260 260 260 260 260 260 260 260 260 260 260 260 260 260 260 260 260 260 260 260 260 260 260 260 259 259 259 259 259 259 259 259 259 259 259 259 259 259 259 258 258 258 259 259 259 259 259 258 258 258 258 258
256 257 257 257 257 257 257 257 257 257 257 257 257 257 258 259 258 258 258 259 259 259 259 259 259 259 259 260 260 260 260 260 260 260 260 260 260 260 260 260 260 260 260 260 260 260 260 260 260 260 260 260 260 260 260 260 260 260 259 259 259 259 259 259 259 259 259 259 258 259 259 259 259 258 258 258 258 258 258 258 258 258 258 258 258 258 258
256 255 255 255 256 256 256 257 257 257 257 257 258 258 258 259 258 258 258 259 259 259 259 258 259 259 259 259 259 260 260 260 260 260 260 260 260 260 260 260 260 260 260 260 260 260 260 260 260 260 260 260 260 260 260 260 259 259 259 259 259 259 259 259 259 259 259 258 258 258 259 259 258 258 258 258 258 258 258 258 258 258 258 258 258 258 258
256 255 255 256 256 257 257 257 258 258 258 258 258 259 259 259 258 258 258 259 259 259 259 259 259 259 259 259 259 259 259 259 259 259 259 259 260 260 260 260 260 260 260 260 260 260 260 260 260 260 260 260 260 260 260 260 259 259 259 259 259 259 259 259 259 259 259 258 258 258 259 259 259 258 258 259 259 259 259 259 259 259 259 259 259 259 259
Wind_Speed
9 2 1 4 5 6 9 13 16 15 15 16 17 16 11 8 10 11 6 11 15 10 11 10 8 9 9 7 6 6 5 5 7 8 9 11 12 12 13 14 14 14 13 13 15 18 18 20 22 23 26 31 33 34 34 35 35 35 34 33 32 31 29 28 26 23 21 19 17 16 14 12 10 9 7 6 5 6 7 8 9 10 11 13 14 14 14
9 3 2 3 4 3 3 8 12 13 15 16 15 17 15 13 16 12 5 8 14 6 9 9 8 8 7 4 4 4 5 7 8 10 10 12 13 14 14 14 13 12 12 12 14 16 18 21 22 23 26 31 35 36 36 36 36 36 35 35 34 33 31 29 26 24 22 20 18 17 15 14 12 11 9 7 7 7 8 9 9 10 12 13 14 14 14
7 6 4 2 3 4 4 7 10 9 9 8 9 13 13 11 14 11 4 8 11 4 8 7 5 5 4 4 6 7 8 8 10 10 10 11 12 12 12 12 11 10 10 12 15 18 20 24 25 26 29 33 36 37 38 38 38 38 37 37 36 34 32 30 28 25 23 21 20 19 17 16 14 12 11 9 9 9 9 10 10 11 12 13 14 14 14
7 6 8 6 2 0 7 14 13 11 9 8 10 12 11 10 12 12 10 10 10 4 6 4 3 4 6 8 9 8 7 8 10 11 10 10 10 11 11 11 10 10 11 14 17 19 22 24 26 30 34 35 37 39 40 40 39 38 38 37 36 35 33 31 29 27 25 24 22 21 19 18 16 14 12 11 10 10 11 11 11 12 13 14 14 14 14
4 2 6 7 4 1 9 14 13 15 14 11 11 11 12 13 11 10 11 11 9 3 4 5 4 5 8 10 9 7 7 8 9 9 8 8 8 9 9 9 9 10 12 15 18 21 23 26 30 35 38 39 40 41 40 39 38 37 37 37 36 35 34 32 30 28 27 26 24 23 21 20 18 15 14 12 12 12 13 13 12 12 13 14 14 14 14
2 0 4 6 5 7 8 5 5 14 18 17 15 14 15 15 12 7 5 5 4 3 6 8 8 8 7 6 5 5 5 7 7 7 6 6 7 7 7 7 8 10 12 14 17 21 25 30 33 36 38 39 40 39 37 37 36 36 36 36 36 35 34 33 31 30 29 27 26 25 23 22 19 17 15 14 14 14 14 13 13 13 14 15 15 14 14
1 2 5 6 7 7 2 3 3 3 9 14 17 17 15 13 11 8 6 6 6 6 7 6 6 5 2 2 3 3 3 5 6 6 6 6 6 6 6 7 8 10 12 14 16 19 24 28 29 31 33 35 35 34 34 34 34 35 36 36 36 36 34 33 32 31 30 29 28 27 25 23 20 18 16 15 15 15 15 14 14 14 15 15 15 15 15
3 3 6 6 3 1 3 1 2 3 3 4 8 10 10 9 11 11 12 11 7 5 4 1 2 2 3 2 2 4 4 4 6 7 7 6 6 7 7 8 10 13 16 18 19 21 23 24 26 27 29 31 31 30 31 32 33 34 35 35 36 36 35 34 33 32 31 30 30 29 27 24 21 19 18 17 17 16 16 15 14 15 16 16 16 16 15
3 4 6 2 5 4 3 4 3 4 3 5 6 6 7 7 11 12 12 11 7 5 4 3 3 3 3 2 4 5 5 6 7 7 5 5 6 7 8 11 13 16 19 20 19 20 20 21 24 25 26 28 29 29 28 29 31 32 33 34 35 35 35 35 34 33 32 32 32 30 28 25 22 20 19 18 17 17 16 16 15 16 17 17 16 16 15
3 3 4 2 4 7 4 4 4 2 1 4 6 3 3 3 7 11 13 12 9 8 6 5 5 4 2 4 5 4 6 7 7 5 3 4 6 7 9 10 11 12 15 16 17 17 17 20 22 22 24 26 27 28 28 28 29 30 31 34 35 35 35 35 34 34 34 33 32 30 28 25 23 21 20 19 18 17 16 16 16 17 17 18 17 16 16
4 4 4 4 5 5 1 3 3 1 0 4 6 1 3 3 6 10 12 11 9 9 8 7 7 5 3 6 4 3 6 7 6 6 5 5 7 8 9 10 11 13 14 15 15 16 16 18 19 20 21 24 26 28 28 28 28 29 31 34 34 34 34 34 34 34 34 33 31 29 28 25 23 22 21 19 18 17 17 17 18 17 17 18 18 17 16
5 6 4 3 4 2 1 3 3 1 1 3 5 2 3 3 5 7 9 8 7 8 8 7 7 6 5 4 1 3 5 5 6 7 7 7 8 9 10 11 12 14 15 16 16 17 17 18 18 19 20 22 25 27 28 28 29 30 31 32 32 32 33 33 33 33 32 31 30 29 27 25 24 22 20 19 18 18 18 18 18 18 18 18 19 18 17
6 8 5 3 3 2 2 3 3 3 1 2 5 4 1 3 5 5 5 6 5 7 7 6 6 5 2 2 3 4 5 4 4 7 7 7 10 11 12 14 14 14 15 17 17 18 19 18 19 20 22 23 25 26 27 28 30 30 29 29 29 31 31 32 32 31 31 30 29 28 27 25 24 22 20 19 19 18 18 19 19 19 18 19 20 19 18
5 5 5 4 4 2 5 4 0 2 3 3 4 2 2 3 6 5 4 4 6 7 7 7 5 2 4 4 4 4 5 4 4 5 6 6 8 10 11 13 13 14 16 18 18 19 19 20 20 21 22 24 25 26 27 29 28 27 27 27 29 30 30 31 30 30 30 30 29 28 28 26 24 22 20 20 20 19 19 19 19 19 19 19 20 20 19
2 2 4 5 4 2 9 9 3 3 4 2 2 3 2 1 4 5 4 5 6 7 7 7 5 4 4 3 3 3 4 3 2 5 7 8 9 11 12 13 15 17 18 19 20 20 20 21 21 22 23 24 25 27 28 28 27 26 27 28 29 30 30 30 30 29 30 30 30 29 28 26 24 22 21 21 20 19 19 19 19 20 19 19 19 20 19
3 4 5 3 1 5 10 9 4 4 4 2 3 5 2 0 3 4 4 4 7 7 6 6 5 5 4 4 3 4 4 3 2 4 6 8 9 12 15 17 18 20 21 22 23 22 22 23 23 24 26 26 26 28 28 28 27 27 28 28 29 29 30 29 30 30 30 31 30 30 28 26 24 23 23 21 21 20 19 19 20 20 19 19 19 19 19
3 2 2 0 1 6 8 3 2 2 4 2 3 6 4 1 3 4 4 4 7 7 5 4 5 5 5 5 4 4 4 4 4 4 6 9 11 13 15 17 18 21 23 24 23 23 24 25 25 26 28 28 28 29 29 29 29 29 29 29 30 30 30 31 31 31 31 31 31 30 28 27 26 25 23 22 21 20 20 20 20 20 19 19 19 18 18
1 1 1 1 1 3 5 2 3 2 2 1 2 4 3 3 4 4 4 4 6 7 6 4 4 5 6 5 4 5 4 4 5 5 5 9 13 13 14 15 17 20 22 21 20 21 24 27 28 29 30 31 31 31 31 30 31 31 30 31 31 32 32 33 33 33 32 32 32 30 29 28 27 25 23 22 21 20 20 20 20 20 19 18 18 18 17
2 1 2 2 1 2 3 2 1 0 0 1 2 2 1 2 4 5 3 2 4 6 6 6 6 5 5 5 5 5 5 5 6 5 6 10 14 16 16 17 18 19 19 20 22 23 26 29 30 31 32 34 35 34 32 31 31 31 32 33 33 34 34 34 34 34 34 34 33 32 31 30 28 26 24 23 22 22 21 21 20 19 18 18 17 17 16
1 1 1 1 2 2 2 1 2 2 2 2 2 1 1 1 2 3 2 2 4 5 6 8 7 5 5 6 6 5 5 6 6 6 9 14 17 18 19 19 19 19 20 22 24 26 28 31 32 33 34 36 37 36 34 32 31 32 33 34 35 36 36 36 36 36 36 35 34 33 32 31 28 26 25 24 23 23 22 21 20 19 18 18 17 16 14
2 1 1 1 1 2 2 3 5 5 3 3 3 2 1 1 2 3 2 2 3 4 5 6 6 5 5 7 7 6 5 5 5 7 12 16 18 19 19 19 21 22 23 25 26 27 31 32 32 33 36 38 39 38 37 34 32 32 34 35 35 36 36 37 38 37 36 36 34 33 32 29 27 26 25 24 24 23 22 20 19 19 19 18 18 16 13
2 2 5 5 2 1 3 5 7 6 4 4 4 3 3 4 4 4 4 3 2 2 3 5 6 6 7 7 7 6 5 5 7 11 15 17 17 18 19 19 20 22 25 26 27 28 31 31 30 32 37 38 38 38 38 36 35 34 34 35 35 36 36 37 38 37 36 36 34 32 29 27 26 25 24 23 23 23 21 20 19 19 19 18 17 15 15
2 3 6 6 3 1 2 5 6 5 5 6 5 5 6 6 6 5 5 5 4 4 6 8 9 7 6 7 7 5 6 10 14 16 17 18 18 20 20 19 20 22 24 25 26 28 31 30 29 32 35 36 36 36 36 37 36 35 34 34 35 36 36 37 37 37 36 35 33 30 28 27 26 25 24 23 23 23 21 20 19 18 18 17 16 15 16
1 2 5 6 4 2 2 4 4 3 4 6 7 6 5 5 5 6 6 6 6 6 6 8 12 11 8 7 7 6 7 14 18 18 19 21 21 20 19 18 20 22 22 23 26 29 31 30 29 30 32 33 34 34 34 35 36 35 35 35 36 37 37 36 35 34 33 32 31 29 28 27 26 24 23 22 22 21 20 19 17 17 16 16 16 17 17
2 2 4 4 3 2 2 1 1 1 2 5 5 5 5 5 6 6 6 6 6 7 5 5 11 15 13 11 12 11 11 16 19 18 18 19 19 17 16 18 20 22 24 26 27 28 28 27 27 28 30 31 31 31 31 32 33 34 36 37 37 36 35 33 32 31 30 29 28 28 28 27 26 24 23 22 21 19 18 17 17 16 16 16 16 16 16
2 2 4 3 1 2 2 1 2 3 4 6 5 4 6 7 7 8 8 7 8 9 8 5 8 14 17 17 17 16 16 17 17 15 15 16 16 17 19 22 23 25 25 25 25 25 25 25 25 26 27 28 28 28 28 29 30 32 34 35 34 33 32 31 30 29 28 28 28 28 27 26 25 24 23 22 20 18 18 18 17 16 15 15 15 16 16
2 4 6 4 1 3 5 6 6 5 5 6 5 5 4 4 5 6 7 9 9 10 13 13 12 12 15 17 17 16 16 16 14 12 14 17 19 21 22 22 21 21 21 21 22 23 23 23 23 24 25 25 24 24 25 26 26 28 30 31 31 29 28 28 27 27 27 28 28 27 26 25 24 22 21 20 19 19 18 19 19 18 17 15 15 16 17
3 4 5 5 5 5 5 6 6 3 3 5 6 5 1 2 3 4 5 7 8 9 13 16 15 11 11 14 14 14 14 13 12 13 17 19 20 20 18 17 17 17 18 19 20 21 21 21 22 22 23 22 22 21 22 22 23 24 26 28 28 27 25 24 24 24 25 25 24 24 23 22 21 20 19 19 18 18 18 18 18 19 19 17 16 16 17
5 4 4 5 5 2 1 1 2 3 2 3 4 3 3 4 5 6 6 7 7 7 9 12 14 15 14 13 12 11 10 11 13 16 17 16 15 14 13 14 15 15 15 17 17 17 18 19 19 19 20 20 19 18 18 18 19 21 23 25 26 26 26 24 23 22 22 21 20 20 20 19 19 18 18 18 18 18 18 18 18 18 19 18 17 17 17
3 3 3 4 4 1 0 2 5 5 4 5 5 5 6 7 7 7 8 8 6 6 9 10 10 11 13 13 14 15 15 14 14 14 12 11 10 11 11 11 11 11 12 14 15 15 15 15 15 16 17 16 16 15 15 15 17 19 21 23 25 25 24 23 21 20 19 18 18 18 18 18 18 17 18 18 18 18 18 17 17 17 18 18 18 18 17
4 5 5 5 4 3 4 6 6 5 3 5 6 6 5 6 7 9 9 7 6 7 10 9 7 8 12 15 17 17 16 15 14 12 10 9 9 9 10 10 9 8 9 11 11 12 12 12 12 13 13 12 12 12 12 14 16 18 20 21 21 21 20 19 18 17 17 17 17 17 17 17 17 17 17 17 17 17 17 16 16 17 17 18 19 19 18
6 4 5 4 3 3 5 6 6 6 4 4 6 7 7 7 9 10 9 7 8 9 9 8 8 11 14 14 14 13 13 13 11 10 9 8 8 7 8 9 9 8 8 8 8 8 9 10 9 9 8 7 7 8 9 12 15 17 18 18 17 17 16 15 15 15 15 16 16 17 17 17 17 17 17 18 18 18 17 16 16 17 17 19 20 20 19
7 4 5 5 3 4 7 8 7 8 7 6 6 7 7 7 8 8 8 7 7 7 6 8 11 14 13 11 10 10 10 8 7 7 7 7 6 6 5 6 6 6 5 5 5 5 6 6 6 5 4 4 5 6 7 9 11 13 14 14 14 14 14 14 14 14 14 14 15 15 16 16 16 16 17 17 17 18 17 16 16 16 17 20 21 21 19
8 7 7 7 6 6 8 9 7 7 7 6 5 5 5 6 7 8 8 8 7 6 8 11 13 12 10 9 9 9 9 6 3 5 8 8 6 5 5 5 5 5 4 4 4 5 5 5 5 5 5 5 6 6 7 8 10 11 12 12 12 12 12 12 13 13 12 12 13 13 14 14 15 16 16 16 16 16 15 16 16 16 17 20 22 21 19
6 7 5 2 3 6 7 6 5 5 5 5 5 5 6 7 8 9 9 8 7 8 9 10 9 8 8 8 8 9 9 7 3 4 9 10 8 8 9 9 8 8 8 8 7 8 8 7 7 6 6 6 6 6 7 8 9 10 10 10 10 10 10 11 11 12 12 12 12 13 13 14 15 16 16 16 16 16 16 17 18 18 17 19 22 22 20
2 3 1 2 1 2 2 2 2 2 2 3 3 3 4 5 6 7 7 6 6 6 7 6 6 5 4 4 5 6 6 5 4 6 9 11 11 11 11 10 11 11 11 8 6 7 7 6 6 5 5 5 5 5 6 6 7 8 8 9 9 9 10 10 10 11 12 12 13 14 14 15 16 17 17 18 18 18 19 20 21 20 19 20 21 21 20
6 4 2 2 3 3 3 4 5 4 2 2 3 3 2 3 3 2 2 3 3 3 3 3 4 5 5 5 4 5 5 5 5 8 10 12 13 13 12 10 10 10 8 6 5 6 6 5 4 4 3 3 3 3 4 4 5 6 7 8 9 9 10 10 10 11 12 12 12 13 14 15 16 16 17 18 19 20 20 20 19 19 19 19 19 19 19
7 7 6 4 5 6 6 6 7 7 6 5 6 6 5 4 4 4 4 4 4 3 2 3 6 8 9 9 9 8 7 7 8 10 13 14 13 13 11 9 7 5 5 5 7 7 6 5 4 3 3 2 3 3 3 4 4 5 5 6 7 7 8 8 9 9 10 10 11 12 13 14 15 15 14 15 17 19 21 21 20 20 20 17 15 16 18
6 7 7 6 8 9 10 10 12 12 10 7 6 6 6 5 5 6 6 7 6 4 5 8 10 12 12 13 12 11 9 9 11 14 14 14 13 13 12 9 6 6 7 8 7 5 3 2 2 2 2 2 3 3 3 3 4 4 4 4 5 6 6 7 8 9 10 11 12 13 14 15 16 16 15 15 17 19 20 21 20 21 21 18 15 16 19
5 5 5 5 5 6 7 9 11 13 12 10 8 7 6 6 7 8 8 8 7 6 7 10 12 13 13 14 14 13 11 12 13 14 14 14 14 13 11 8 6 7 8 7 5 3 2 1 1 1 2 2 2 2 2 2 2 2 3 3 4 5 6 7 8 10 11 12 13 14 15 15 16 17 17 18 18 19 20 20 19 19 20 19 18 18 19
4 4 4 4 5 5 5 7 9 11 12 11 9 7 5 5 7 9 9 8 8 7 8 9 11 13 14 15 16 16 14 13 13 13 13 13 13 10 7 5 6 7 7 5 4 3 2 2 1 1 1 1 1 1 1 0 0 0 0 1 2 3 4 6 7 9 10 11 12 13 14 14 15 16 17 18 19 19 19 20 19 18 18 19 19 18 18
6 5 4 4 5 5 6 8 9 10 11 10 10 9 7 7 9 11 11 10 10 10 10 10 13 16 17 17 17 16 14 13 12 11 10 10 9 7 5 5 7 8 7 6 5 5 4 3 3 2 2 2 2 2 2 2 1 1 1 2 3 4 6 7 8 9 10 11 12 13 14 14 15 16 17 18 19 19 19 19 19 19 19 18 18 17 17
5 4 4 4 4 5 8 9 10 10 11 11 11 11 11 11 12 13 13 13 14 15 16 16 17 18 18 17 17 15 13 11 11 11 10 8 7 6 6 8 9 8 7 6 5 5 4 4 4 3 3 3 3 2 1 1 1 2 3 4 6 7 8 9 10 10 11 12 13 14 14 15 16 17 18 18 19 19 19 18 19 19 18 18 17 16 16
5 4 4 4 5 6 8 9 10 10 10 10 11 12 12 13 13 13 14 15 15 16 17 18 17 16 15 14 14 13 12 10 11 11 10 8 6 6 7 8 8 7 6 5 4 3 3 2 2 2 1 1 1 1 2 3 4 5 6 7 7 8 9 10 10 11 11 12 13 14 15 16 16 17 17 18 18 18 18 18 18 18 18 17 17 16 16
6 6 5 5 6 7 8 9 10 11 12 14 15 15 14 14 13 13 14 15 15 15 15 15 14 13 12 12 12 12 11 10 9 9 7 4 3 4 6 7 6 5 5 4 3 2 2 1 1 1 1 2 3 4 5 6 7 8 8 8 9 9 9 10 10 11 12 12 13 14 15 17 17 18 18 18 18 18 18 18 19 18 18 18 18 17 17
6 6 7 8 9 9 10 11 13 14 16 17 16 15 14 14 14 14 14 15 15 14 13 13 12 12 11 11 12 11 10 9 7 6 5 4 5 6 7 6 5 3 3 2 1 1 2 3 3 3 4 5 6 7 8 9 9 9 9 9 9 9 10 11 12 12 13 13 13 14 15 17 18 19 18 18 18 18 18 19 19 19 19 19 19 18 18
8 8 9 10 10 10 10 11 11 11 11 11 9 9 11 14 14 14 14 14 14 13 12 12 12 11 10 9 9 10 10 8 7 6 6 6 6 6 5 4 2 2 2 2 2 3 3 4 5 5 6 6 7 8 9 9 9 10 10 10 10 11 12 13 13 13 14 14 14 14 15 17 18 18 18 18 18 18 18 18 19 19 19 18 18 18 18
10 10 10 10 9 9 9 10 9 9 8 8 8 9 11 13 13 13 13 12 12 11 11 10 9 9 8 8 8 8 8 6 5 4 5 5 4 3 2 1 2 2 2 2 3 3 4 4 5 6 6 7 8 9 9 9 10 10 11 11 12 13 14 15 15 14 15 15 15 15 15 17 18 18 18 18 18 18 18 18 18 19 19 19 19 19 19
12 11 10 10 9 9 9 9 8 7 7 9 11 11 11 11 12 11 11 10 10 10 9 8 8 7 7 6 6 6 5 4 3 4 4 3 1 0 1 2 3 3 4 4 4 4 5 6 6 7 8 9 10 11 11 11 12 12 13 14 15 15 16 16 16 16 16 17 17 16 16 17 17 18 18 18 18 18 18 18 19 19 19 19 20 20 20
10 11 10 9 8 8 8 7 7 7 8 10 9 9 8 9 8 8 7 7 8 8 8 7 7 6 5 5 4 4 3 3 3 3 2 1 1 2 3 3 4 4 5 5 6 6 7 7 8 9 10 11 12 13 13 13 14 15 15 16 17 17 17 17 17 17 17 18 17 17 17 17 18 18 18 19 19 19 19 19 20 19 19 20 20 20 20
9 11 10 10 9 9 9 8 9 9 9 8 6 5 6 7 7 7 6 5 6 7 8 7 6 5 4 4 3 2 2 2 1 1 1 2 3 3 4 5 5 6 7 7 8 8 9 9 10 11 11 12 13 14 14 15 16 16 17 17 18 18 18 18 18 18 18 18 18 18 18 18 19 19 20 20 20 20 20 20 20 20 20 20 20 20 20
11 13 13 13 13 13 12 11 10 9 8 7 5 5 6 7 7 7 6 5 5 6 7 6 4 3 3 3 2 2 1 1 2 2 3 4 5 5 6 6 7 8 8 9 9 10 10 11 11 12 12 13 14 14 15 16 16 17 17 18 18 18 18 18 18 19 18 18 18 18 19 19 20 20 20 20 20 20 20 20 20 20 19 19 19 19 19
Wind_Direction
246 61 118 202 176 191 205 200 201 196 190 193 198 217 217 170 213 247 144 165 222 207 167 195 197 187 203 199 197 206 188 170 163 166 178 183 190 194 194 197 197 196 200 195 187 186 185 189 194 195 198 200 200 201 201 201 200 199 198 196 194 194 194 197 200 201 201 203 206 209 210 211 217 226 237 253 281 303 314 318 322 328 329 327 324 321 320
245 208 188 195 173 191 211 205 205 197 193 193 194 212 215 205 229 244 137 190 237 195 152 194 196 190 200 172 163 181 167 165 166 173 184 190 194 197 198 200 200 200 198 187 183 185 188 192 195 195 199 202 203 204 205 205 204 203 201 200 199 198 199 201 204 205 207 210 213 213 214 218 224 232 242 256 277 292 301 307 314 321 320 318 316 314 315
237 209 196 205 193 200 223 227 218 197 181 182 198 217 214 212 236 241 201 238 252 178 148 192 196 174 174 169 181 185 179 171 167 176 189 193 197 199 199 201 200 196 193 187 187 191 195 198 198 198 202 204 205 206 207 208 207 206 204 203 202 202 203 205 207 208 211 213 215 216 218 223 228 234 244 256 271 284 295 301 306 311 311 310 310 310 311
228 192 186 200 171 125 257 248 225 184 163 178 202 216 211 203 222 232 232 245 250 201 148 170 182 164 180 196 194 186 181 170 171 183 191 193 195 194 196 198 195 194 194 193 195 197 199 199 199 203 205 205 206 207 208 208 208 207 206 205 205 206 207 209 210 211 215 216 216 219 223 226 230 236 243 255 269 280 289 293 297 302 303 303 304 306 308
226 169 181 179 126 146 253 248 211 181 183 196 204 215 217 208 208 218 225 235 246 232 151 160 181 191 204 208 194 180 178 174 181 191 188 190 193 188 190 190 189 195 197 198 201 201 202 204 206 209 209 207 208 209 208 208 208 207 206 207 208 209 211 212 213 215 218 218 219 223 226 228 231 236 244 254 266 276 282 286 290 294 296 298 301 303 306
221 77 137 144 169 217 241 262 201 188 193 197 203 215 217 208 206 218 238 244 236 193 172 183 194 198 204 203 179 169 172 174 187 194 189 194 193 183 187 189 192 198 199 202 206 206 210 213 214 214 213 211 211 210 209 208 208 207 208 208 210 211 213 214 217 219 220 220 222 225 227 228 231 236 244 254 263 271 276 279 284 289 292 294 298 302 305
129 102 132 164 212 226 228 349 329 210 196 199 209 226 228 210 201 208 229 236 215 192 193 200 198 184 147 101 146 168 185 180 175 180 195 205 194 185 193 197 197 198 196 200 205 208 214 216 215 215 215 213 212 211 209 208 207 208 210 210 211 213 214 216 219 220 221 221 224 226 227 229 232 237 243 251 259 267 271 274 280 285 288 292 296 300 304
122 143 179 195 242 241 122 67 348 45 78 168 206 242 247 212 193 198 215 225 211 177 180 152 59 80 71 41 206 184 183 185 174 182 197 196 190 194 199 198 198 201 203 204 205 208 211 213 212 213 213 211 210 210 210 209 209 211 212 212 213 215 216 219 220 221 222 223 225 226 227 229 232 236 242 248 256 263 266 270 276 281 285 291 295 298 301
143 171 205 241 326 286 175 153 188 181 150 153 175 229 244 207 190 192 208 218 192 141 135 114 82 87 87 306 254 199 179 188 192 200 197 177 188 201 203 208 211 212 210 208 207 208 208 208 208 208 208 208 206 206 207 208 210 212 212 213 215 217 218 221 222 223 225 225 225 226 227 229 232 235 240 247 253 259 264 268 274 279 284 289 292 295 300
139 166 213 238 285 256 206 159 190 197 133 142 154 201 250 201 185 187 198 209 188 145 133 138 133 124 149 250 248 197 179 188 192 204 207 191 203 208 207 212 213 209 208 206 206 206 204 204 206 206 206 205 202 202 205 207 209 210 212 215 218 219 221 223 224 226 226 226 226 226 227 229 231 234 239 245 251 257 262 267 272 277 282 287 291 295 299
160 184 215 209 227 242 181 170 198 172 131 137 123 155 256 191 181 189 194 200 182 149 145 153 149 149 204 238 236 165 174 187 182 189 203 204 209 216 218 212 201 197 197 195 196 197 196 199 201 201 202 201 199 201 206 207 207 209 213 218 220 221 224 225 225 226 227 226 226 227 228 229 230 233 239 244 250 256 260 265 270 275 280 286 290 294 297
190 200 218 225 241 262 119 169 188 174 235 155 138 208 258 177 178 193 189 191 173 146 146 152 163 183 210 230 208 133 152 167 175 190 201 201 202 213 218 207 197 195 190 183 183 186 189 192 193 194 197 198 199 203 206 206 207 213 219 223 223 223 224 224 225 226 226 225 226 226 227 228 229 232 238 244 249 254 259 263 269 275 281 285 289 292 295
215 215 226 249 257 242 154 177 186 164 161 173 184 211 258 140 177 193 182 175 147 137 149 165 187 203 189 91 82 108 128 143 180 200 202 201 205 209 208 200 193 189 186 184 184 186 187 189 192 194 195 196 200 205 205 206 212 220 225 225 223 223 223 224 225 225 224 224 225 225 226 226 229 233 237 244 249 253 257 263 268 274 280 285 288 291 294
221 224 239 257 260 208 126 122 130 197 181 187 195 190 73 138 177 187 185 167 144 151 174 189 190 150 93 95 108 137 164 172 174 173 168 179 196 199 199 197 191 185 186 189 192 194 194 194 196 197 196 198 204 206 206 212 222 226 226 224 222 223 223 223 224 224 223 223 222 222 224 225 228 234 238 243 248 252 256 263 269 274 279 284 287 291 293
181 215 222 235 259 175 129 120 107 233 214 191 138 118 76 117 161 171 183 176 169 176 188 198 187 113 105 149 151 150 184 194 140 151 165 178 187 186 188 194 195 193 194 197 200 202 202 202 202 202 200 203 207 208 212 223 229 227 224 224 223 223 223 222 222 221 221 221 221 221 224 226 229 234 239 243 247 251 257 264 269 274 279 283 287 290 293
165 195 211 215 198 168 158 146 152 191 183 148 138 141 134 153 164 171 186 190 191 194 193 194 175 133 143 196 186 167 186 184 150 168 183 190 193 193 195 200 201 201 203 207 209 209 210 211 209 207 208 210 210 212 221 230 230 224 224 224 222 221 221 220 220 220 220 220 221 222 224 227 230 233 238 242 246 251 257 262 268 273 278 283 287 290 295
166 175 198 35 87 168 170 140 32 129 130 126 154 141 134 189 186 180 192 190 191 199 199 174 159 168 192 201 189 189 189 179 185 190 189 197 204 206 207 209 209 209 210 214 217 216 216 217 215 214 215 214 213 218 226 230 227 226 224 221 218 218 218 217 218 219 219 219 221 223 225 228 230 234 237 240 245 250 255 260 265 270 275 280 285 290 294
153 71 99 77 63 181 173 117 40 88 114 115 154 139 149 185 174 175 192 189 183 188 185 164 170 199 203 190 189 204 202 199 204 195 192 210 215 214 215 217 218 218 218 220 222 222 223 223 220 219 219 218 219 226 230 228 227 226 223 219 217 216 216 217 218 218 218 219 220 222 225 228 231 234 237 240 243 248 252 257 262 267 273 278 283 288 292
198 157 131 112 68 220 196 156 81 7 130 139 169 175 176 166 168 182 195 176 162 167 173 185 199 202 190 184 198 206 202 210 211 197 204 219 220 220 223 224 224 222 220 221 225 227 228 227 225 224 223 223 226 230 230 228 227 224 220 219 218 217 217 217 217 218 219 220 220 222 224 226 229 232 235 238 242 245 249 255 260 265 269 274 278 283 288
157 122 133 37 336 284 241 204 219 226 191 162 181 215 46 89 153 175 164 127 142 160 183 201 208 200 186 190 203 206 203 208 206 199 210 218 221 224 227 227 224 221 220 223 226 229 231 232 231 229 229 230 230 229 228 229 227 223 220 220 220 220 220 218 218 219 220 220 221 222 224 226 229 232 235 239 242 246 250 255 258 261 265 269 274 278 282
103 62 188 203 292 279 221 212 229 230 196 166 174 176 142 127 142 154 179 198 181 178 190 196 197 206 206 202 207 214 211 203 201 208 216 221 225 228 229 227 225 223 224 227 228 232 236 237 235 234 234 235 234 231 229 229 228 224 223 222 221 221 219 218 218 219 219 219 221 222 225 227 230 234 238 242 245 249 252 254 257 261 264 267 271 275 276
185 177 173 172 168 186 193 205 222 219 179 158 166 174 189 204 188 169 186 208 198 210 220 194 187 209 221 212 208 216 218 209 210 218 222 227 233 237 235 232 230 228 229 231 232 236 241 241 238 238 239 239 238 235 231 230 229 227 225 222 220 220 219 218 218 218 217 218 220 222 224 228 232 236 240 243 247 250 253 254 257 260 263 267 272 277 280
218 171 167 170 167 157 190 204 215 202 160 158 182 197 200 206 198 181 185 192 191 217 226 208 198 209 221 211 204 212 230 228 224 223 224 225 232 238 237 234 233 233 234 234 234 239 244 244 241 241 243 243 242 240 237 234 232 229 226 223 221 220 220 220 220 218 217 218 219 220 224 228 231 235 239 243 247 252 255 256 258 260 264 266 267 266 269
97 173 176 175 171 158 168 193 205 189 154 169 199 218 215 207 195 187 196 206 207 211 216 211 212 219 226 220 207 205 231 236 231 229 229 229 233 240 241 237 235 237 238 237 239 244 247 247 245 245 246 247 246 245 243 239 235 231 227 225 225 224 223 222 221 219 219 218 218 219 223 226 229 233 236 241 247 253 256 258 256 256 258 259 256 252 253
139 187 175 162 162 139 103 151 217 197 159 180 204 225 225 212 194 186 197 213 219 219 217 212 217 220 224 226 222 219 231 241 237 232 235 239 241 243 244 242 241 243 244 244 246 249 251 251 250 250 250 250 249 248 246 242 237 233 230 229 229 228 225 222 220 219 219 219 219 221 224 226 228 231 235 239 243 247 252 255 254 251 251 253 254 252 249
128 133 113 99 109 129 112 129 244 217 191 190 201 221 225 217 203 198 208 220 224 224 223 223 226 224 224 227 228 227 234 244 245 240 240 243 244 242 243 245 246 246 248 249 250 253 255 255 255 254 254 254 253 251 249 245 239 235 232 230 229 229 226 224 222 222 221 221 223 224 226 227 229 232 235 239 242 243 243 248 254 255 253 249 247 245 244
141 141 127 119 213 206 186 202 222 211 175 173 199 227 229 215 205 210 228 240 241 237 234 235 236 233 229 230 232 234 238 245 248 243 238 239 242 243 245 249 252 252 253 254 255 257 259 259 258 258 258 258 257 253 250 246 240 235 233 230 227 227 227 226 225 225 225 225 226 226 227 228 230 233 236 240 243 244 242 245 251 256 258 254 247 244 244
194 185 166 180 217 217 197 203 226 233 161 170 209 228 197 153 185 207 232 242 240 239 240 238 234 228 229 231 230 232 240 244 244 242 240 242 246 250 252 256 259 259 258 258 259 259 259 257 257 257 257 257 257 254 250 245 239 234 231 227 224 223 223 223 223 225 226 227 227 228 230 231 232 235 238 239 242 244 246 249 251 255 259 259 255 251 249
205 197 195 217 229 224 101 136 222 236 189 181 209 213 175 181 204 217 229 234 228 229 240 239 228 225 230 232 226 225 233 238 240 244 247 249 253 258 260 260 260 260 259 258 257 257 255 253 253 254 254 255 256 254 250 245 238 233 229 225 221 220 220 221 223 224 226 228 228 229 231 233 234 236 237 239 242 244 247 250 252 255 259 260 260 260 258
198 179 200 235 243 235 113 222 232 227 193 176 193 206 200 206 220 231 236 233 225 229 241 240 229 226 229 229 228 230 233 239 246 253 257 260 261 260 259 259 257 255 254 253 253 253 253 253 253 252 253 255 254 251 247 240 232 228 225 222 219 219 220 222 225 226 228 228 228 228 230 232 235 236 238 240 243 245 247 250 251 253 257 260 261 261 259
179 198 211 229 236 231 233 241 247 243 195 165 186 205 201 204 223 238 243 238 229 234 242 241 232 228 230 232 235 239 241 247 255 260 260 259 258 257 253 247 243 244 251 255 255 253 251 249 248 248 250 251 249 245 238 229 222 217 215 215 216 218 222 226 228 231 232 231 230 230 231 234 236 238 240 241 243 244 246 249 250 251 253 257 260 261 260
161 196 224 241 253 252 248 248 254 255 230 176 189 209 203 200 218 232 238 236 233 236 241 243 239 238 240 242 245 246 246 248 250 248 246 246 248 249 246 238 235 242 253 256 254 250 243 239 239 241 243 240 234 226 219 216 213 210 210 212 215 219 224 228 231 234 236 235 234 234 236 239 242 244 244 245 246 247 247 248 250 252 253 255 260 265 265
154 184 229 231 222 245 253 248 244 248 239 210 206 220 218 210 221 232 237 239 241 242 241 244 247 250 251 251 247 237 229 227 227 224 223 224 225 227 227 223 224 230 237 237 234 228 221 217 214 208 197 184 181 186 193 199 205 209 212 217 222 226 229 229 230 233 236 237 238 241 245 248 250 251 251 252 251 251 251 251 252 255 258 259 263 268 270
184 210 229 216 192 211 239 239 232 238 243 232 224 228 224 220 227 237 243 246 244 243 243 247 254 259 256 245 234 218 202 197 205 207 204 200 196 191 184 177 179 180 171 167 167 162 160 163 164 163 163 165 168 175 183 192 203 211 218 223 227 229 229 229 229 231 236 240 245 250 253 254 254 255 256 257 256 255 254 254 255 258 261 264 268 271 272
219 235 254 246 193 216 238 246 238 236 239 237 233 228 224 227 231 238 245 247 247 253 259 257 256 252 238 225 216 203 198 205 216 195 188 185 177 167 160 152 147 141 135 134 142 147 148 153 159 163 167 172 177 184 191 199 207 215 221 227 232 234 237 238 239 242 245 249 253 254 254 255 258 260 261 261 260 259 259 260 261 261 261 265 271 274 274
308 277 304 27 26 246 263 311 333 309 270 261 259 241 231 238 244 247 253 262 267 271 270 254 233 218 203 197 197 195 198 203 191 173 175 173 166 161 157 151 147 141 131 125 137 153 157 161 168 175 181 189 196 204 210 215 222 228 232 237 241 243 244 246 248 251 253 255 257 259 261 263 265 266 265 264 263 263 263 263 263 262 262 264 269 272 274
22 24 46 41 31 43 53 45 34 30 36 50 42 33 359 330 328 315 297 306 311 303 286 229 189 157 132 129 139 143 147 156 163 163 163 160 157 155 151 147 148 144 130 119 133 150 154 157 163 170 177 188 202 214 221 226 233 238 242 244 246 247 250 252 254 258 261 263 264 266 267 268 267 267 266 265 264 263 263 262 262 262 263 264 266 267 270
45 50 59 65 70 73 69 61 54 51 60 70 62 47 38 34 38 48 49 39 31 31 70 131 139 133 125 119 112 107 114 131 144 146 146 148 150 147 139 136 140 141 134 137 142 141 140 143 148 155 168 185 203 219 228 232 236 240 243 247 250 252 255 258 260 263 266 269 270 271 270 269 268 267 266 266 265 264 264 265 265 265 266 266 265 266 269
40 43 45 58 73 77 72 66 58 53 55 66 65 53 51 64 79 81 72 61 59 77 113 125 125 122 119 115 108 103 109 124 134 137 138 140 141 135 124 119 126 136 143 151 151 146 147 162 169 185 210 218 232 246 249 250 254 256 256 259 262 263 265 266 268 270 272 272 273 273 272 271 270 269 269 270 271 272 273 272 271 271 270 270 268 268 271
26 21 20 36 59 66 63 62 59 55 58 67 67 59 62 81 97 95 84 74 77 101 126 132 127 121 119 119 116 113 115 124 131 134 134 136 137 130 116 108 121 137 145 154 159 156 163 182 191 221 236 239 256 266 264 269 275 275 273 274 274 273 273 273 271 272 274 275 274 273 273 273 273 274 275 276 277 278 278 278 276 274 272 271 271 273 275
20 15 24 47 61 62 68 77 74 66 63 65 67 70 85 109 111 103 94 90 95 109 125 133 131 126 125 126 125 122 122 126 129 133 137 140 138 129 113 114 137 144 145 150 149 142 140 149 160 186 206 216 236 235 200 153 139 107 355 314 294 285 281 279 277 277 278 277 275 274 274 275 275 277 278 279 279 280 279 277 275 274 272 271 273 275 276
11 12 32 58 65 70 82 94 91 77 67 64 70 79 93 110 114 110 107 106 109 110 112 120 127 128 128 128 126 124 123 126 127 129 137 144 142 134 130 142 148 147 144 144 142 137 135 134 132 134 138 133 126 127 121 110 93 28 339 310 297 294 291 288 287 287 286 283 282 282 281 280 281 281 282 282 282 282 281 280 278 277 276 275 275 276 276
6 16 42 60 71 87 97 102 101 92 78 70 74 84 94 102 108 110 108 106 108 109 110 114 120 125 127 130 129 127 126 128 128 125 122 121 124 130 138 143 144 144 143 142 140 138 135 131 126 125 123 117 112 113 108 69 319 303 302 298 295 294 293 290 290 291 290 288 288 287 286 284 284 284 284 284 285 284 284 283 282 281 280 280 280 278 277
24 43 67 82 92 101 106 107 104 95 84 77 80 88 93 95 98 103 105 105 106 111 115 118 122 126 130 133 132 130 129 130 131 128 120 107 101 116 133 138 141 142 141 139 139 142 143 140 137 134 128 101 55 334 311 307 301 297 297 295 291 289 289 290 290 290 288 286 285 285 285 285 284 284 284 285 285 285 286 286 285 284 285 284 282 279 278
43 57 78 97 99 99 104 107 105 103 100 94 88 85 87 90 92 97 102 103 103 106 111 115 117 120 124 126 123 122 123 124 126 127 125 111 110 135 143 142 141 141 141 141 141 146 161 190 217 233 265 287 294 292 290 292 292 290 289 287 285 285 286 287 286 284 283 283 283 284 286 287 286 285 285 286 286 286 287 287 286 286 286 285 283 283 282
59 67 81 91 92 93 101 108 111 110 106 97 86 78 81 89 94 96 100 103 104 103 106 110 110 110 115 120 120 120 120 118 116 121 125 125 134 145 147 146 146 151 155 165 189 218 240 251 261 268 273 275 279 281 282 283 283 283 282 283 284 284 284 283 282 281 281 282 284 287 288 288 287 286 286 287 287 287 287 287 287 286 286 286 285 285 285
83 85 88 93 97 102 108 112 113 109 101 94 86 82 88 95 100 101 102 105 107 108 109 111 111 110 114 119 124 129 129 121 110 109 115 118 124 136 145 152 174 206 225 241 246 254 261 262 263 269 274 275 275 276 277 277 278 280 281 283 283 283 281 280 280 281 282 283 285 286 286 286 287 287 288 288 288 288 288 288 288 286 286 286 286 286 286
99 97 97 101 106 110 114 111 103 92 90 98 107 107 104 103 103 103 103 105 108 109 109 109 109 110 114 118 124 132 135 127 115 119 124 119 115 128 152 211 253 258 264 269 268 270 277 278 279 281 282 281 279 277 276 277 280 282 284 284 283 281 280 279 280 282 283 283 283 285 286 286 287 288 288 288 289 289 288 288 287 287 288 288 288 287 286
108 109 109 111 114 115 114 108 98 93 107 118 117 114 114 113 108 105 108 111 112 112 113 113 110 110 113 116 119 125 124 117 124 144 145 124 86 46 279 288 289 287 288 287 284 282 283 286 287 287 284 281 280 280 281 283 284 284 283 283 281 279 279 280 281 282 282 281 281 283 286 286 286 287 287 288 288 288 288 288 287 287 288 289 288 287 286
115 113 108 107 110 111 112 112 113 123 131 128 120 117 120 117 105 98 102 112 116 116 117 114 110 110 110 110 113 115 108 102 117 141 157 205 287 280 280 282 280 280 284 286 287 287 286 285 284 284 282 281 283 284 284 285 285 283 281 280 279 279 280 281 281 281 281 282 283 285 286 286 286 287 287 288 288 288 288 288 288 289 289 288 287 286 286
112 108 101 98 101 102 103 109 117 124 124 119 115 117 121 115 104 95 94 102 115 124 123 118 114 117 120 121 124 127 121 113 120 173 262 281 280 278 281 280 277 279 284 286 288 290 289 288 287 287 287 286 287 287 286 285 283 281 280 280 280 280 280 282 283 283 282 283 285 286 287 287 288 288 288 288 289 289 289 289 290 290 289 288 287 287 287
101 102 101 101 101 101 100 103 111 116 117 112 111 117 121 120 115 107 100 99 113 129 136 136 134 134 140 149 158 159 162 254 288 285 282 281 280 280 283 285 285 286 288 289 290 292 292 291 292 293 293 292 291 290 287 284 282 281 280 280 280 280 281 281 282 282 282 282 284 286 287 287 288 288 289 289 290 291 291 291 291 290 290 289 289 289 288